Location: Poughquag
(41.6090°N, 73.6820°W)
Time: 01:02:26
(UTC-04:00)

S-56A Canister/Altair - Pass Details

Date: 07 June 2020
Orbit: 633 x 2499 km, 38.9° (Epoch: 06 July)

Event Time Altitude Azimuth Distance (km) Brightness Sun altitude
Rises 05:28:56 0° 264° (W) 3,125 10.1 0.5°
Reaches altitude 10° 05:31:01 10° 262° (W) 2,323 9.4 0.8°
Maximum altitude 05:36:22 71° 179° (S) 1,022 8.2 1.7°
Drops below altitude 10° 05:44:15 10° 97° (E) 3,375 11.8 3.0°
Sets 05:47:52 0° 96° (E) 4,661 12.6 3.6°
